Location: Drainage Ditch Number 84
(43.1180°N, 94.0938°W)
Time: 21:08:47
(UTC+00:00)

Daily predictions for brighter satellites

Satellite Brightness Start Highest point End
(mag) Time Altitude Azimuth Time Altitude Azimuth Time Altitude Azimuth
STARLINK 1053 4.2 12:04:01 29° WSW 12:04:31 31° SW 12:07:43 10° SSE
Okean 1-7 3.9 12:06:28 28° W 12:06:30 28° W 12:10:15 10° SSW
Cosmos 332 Rocket 4.2 12:02:41 10° S 12:07:33 68° ESE 12:12:26 10° NNE
STARLINK 1061 4.3 12:06:57 27° WSW 12:07:33 29° SW 12:10:41 10° SSE
DMSP B5D1-3 4.5 12:02:56 10° SSE 12:08:06 90° WSW 12:13:18 10° NNW
MOS 1-B 4.4 12:02:46 10° N 12:08:26 56° WNW 12:14:02 10° SSW
Cosmos 1850 Rocket 4.2 12:04:48 19° NW 12:08:33 53° WSW 12:13:42 10° S
Cosmos 405 4.1 12:05:23 10° N 12:08:49 45° ENE 12:12:11 10° SSE
SL-23 DEB 3.6 12:09:27 37° WNW 12:10:16 47° NNW 12:13:29 10° NE
STARLINK 1067 4.4 12:10:10 25° WSW 12:10:53 27° SW 12:13:58 10° SSE
Cosmos 1500 3.6 12:07:25 10° S 12:11:13 67° E 12:15:01 10° NNE
Cosmos 1515 3.6 12:10:23 10° NNW 12:14:08 71° W 12:17:56 10° S
Meteor 1-11 Rocket 4.3 12:09:20 10° S 12:15:00 63° E 12:20:48 10° NNE
Cosmos 2026 Rocket 4.4 12:11:10 10° NNW 12:16:53 40° W 12:22:39 10° SSW
PSLV R/B 4.0 12:16:52 22° SW 12:17:25 25° SSW 12:19:29 10° SE
USA 234 3.7 12:12:49 10° NE 12:18:54 43° NNW 12:23:58 15° W
NOAA 6 3.9 12:13:58 10° N 12:19:05 71° WNW 12:24:10 10° SSW
PAYLOAD B 4.3 12:16:27 10° N 12:21:49 54° WNW 12:27:12 10° SW
SMAP 4.0 12:18:52 10° NNE 12:23:26 52° E 12:27:58 10° S
Cosmos 44 3.4 12:22:24 10° SW 12:26:58 46° NW 12:31:20 10° NNE
Cosmos 2279 Rocket 4.1 12:21:32 10° SSW 12:27:31 51° WNW 12:33:36 10° N
Cosmos 371 Rocket 3.3 12:23:35 10° SSW 12:28:22 61° WNW 12:33:13 10° NNE
SJ-7 4.3 12:28:03 10° N 12:32:01 60° WNW 12:35:56 10° SSW
ALOS 2.9 12:29:57 10° N 12:34:05 32° WNW 12:38:13 10° SW
Meteor 1-5 Rocket 4.3 12:32:24 10° SSW 12:38:20 71° WNW 12:44:09 10° N
ATLAS CENTAUR R/B 2.7 12:35:04 10° NNW 12:38:54 33° NE 12:42:28 10° ESE
Meteor 2-4 Rocket 3.9 12:38:33 10° NNW 12:43:47 47° W 12:48:53 10° SSW
SL-24 R/B 4.4 12:40:49 10° S 12:45:02 45° W 12:49:06 10° NNW
Cosmos 1908 Rocket 3.9 12:42:17 10° S 12:46:44 73° E 12:51:12 10° NNE
Cosmos 1331 Rocket 4.2 12:42:24 10° SW 12:47:22 48° WNW 12:52:24 10° N
CZ-4 R/B 4.1 12:44:41 10° NE 12:47:52 23° E 12:51:03 10° SSE
Okean 3 4.3 12:44:45 10° NNW 12:48:24 29° W 12:52:03 10° SSW
COSMO-SKYMED 1 4.4 12:50:20 10° WSW 12:52:22 13° W 12:54:23 10° WNW
Cosmos 2278 Rocket 4.2 12:49:48 10° SSE 12:54:48 33° ESE 12:59:48 10° NE
Cosmos 1666 2.7 12:51:34 10° S 12:55:23 90° NE 12:59:11 10° N
Cosmos 1655 Rocket 4.5 12:53:57 10° NNW 12:59:38 39° W 13:05:19 10° SSW
Cosmos 2263 Rocket 3.7 12:57:51 10° WNW 13:00:57 15° NW 13:04:04 10° N
Orbus 7S? 3.7 13:02:53 10° W 13:05:01 23° NNW 13:07:17 10° NNE
Cosmos 1536 3.3 13:04:15 10° SSW 13:08:07 41° WNW 13:12:00 10° N
Cosmos 1733 Rocket 4.0 13:05:12 10° SW 13:08:47 25° WNW 13:12:24 10° NNW
IRIDIUM 104 4.4 13:04:24 10° N 13:09:32 58° W 13:14:38 10° SSW
SAR-Lupe-2 3.7 13:06:44 10° SSE 13:10:18 80° ENE 13:13:56 10° N
NOSS 3-2 (A) 3.4 13:04:36 10° SW 13:10:19 68° NW 13:16:51 10° NNE
Cosmos 44 Rocket 3.3 13:06:43 10° SW 13:11:37 84° NW 13:16:27 10° NNE
BREEZE-M DEB (TANK) 4.1 22:59:57 10° SW 23:04:15 78° SE 23:22:17 10° ENE
USA 215 3.4 22:59:59 10° NE 23:06:33 87° NW 23:13:06 10° SW
COSMOS 2428 3.6 23:02:49 10° SW 23:08:18 49° WNW 23:13:50 10° NNE
Envisat 4.0 23:05:47 10° ESE 23:09:47 24° ENE 23:13:46 10° NNE
YAOGAN 6 4.5 23:12:02 10° E 23:13:07 11° ENE 23:14:11 10° NE
Lacrosse 5 rocket 2.7 23:09:35 10° W 23:13:30 32° NNW 23:17:14 10° NNE
Cosmos 1733 Rocket 3.1 23:11:19 10° N 23:15:44 86° ENE 23:20:09 10° S
FALCON 9 DEB 3.2 23:12:42 10° SW 23:16:12 89° NNW 23:19:42 10° NE
Meteor 1-5 Rocket 4.2 23:11:11 10° N 23:16:42 87° W 23:22:02 10° S
SL-4 R/B 3.3 23:17:05 10° WNW 23:20:11 24° N 23:23:28 10° NE
CZ-4B R/B 3.8 23:15:18 10° S 23:20:34 61° WSW 23:25:57 10° NNW
Cosmos 1992 Rocket 4.0 23:15:29 10° NNW 23:20:44 82° ENE 23:25:58 10° SSE
Cosmos 1743 4.3 23:18:29 10° NE 23:20:47 15° ENE 23:23:05 10° ESE
AQUARIUS 4.4 23:19:45 10° SE 23:24:04 49° ENE 23:28:25 10° N
BREEZE-M DEB (TANK) 2.6 23:18:45 10° WNW 23:24:51 53° NNE 23:27:25 10° E
SMAP 3.1 23:22:43 10° SSE 23:27:16 59° ENE 23:31:52 10° N
Cosmos 921 Rocket 3.9 23:23:53 10° N 23:27:36 28° ENE 23:31:20 10° SE
Feng Yun 1-1 Rocket 4.2 23:23:44 10° SSE 23:29:02 65° ENE 23:34:25 10° N
Cosmos 1812 3.2 23:27:33 10° SSW 23:31:23 65° W 23:35:15 10° N
Abrixas rocket 4.4 23:30:23 10° SSE 23:31:36 12° SE 23:32:50 10° ESE
Cosmos 2278 Rocket 2.7 23:26:08 10° NNW 23:31:46 67° WSW 23:37:20 10° SSE
CZ-4 R/B 2.7 23:33:31 10° ESE 23:36:05 17° ENE 23:38:38 10° NNE
ALOS 4.5 23:34:28 10° SSW 23:38:31 29° W 23:42:36 10° NW
ISS -1.4 23:36:36 10° WNW 23:39:29 26° SW 23:42:20 10° SSE
USA 267 3.2 23:33:24 10° ESE 23:39:54 71° NE 23:46:25 10° NW
Nadezhda 4 Rocket 4.1 23:33:40 10° S 23:40:00 85° W 23:46:21 10° N
Cosmos 1500 4.1 23:36:24 10° NNW 23:40:04 51° W 23:43:41 10° S
Cosmos 2369 Rocket 3.6 23:38:53 10° N 23:42:36 18° NE 23:44:45 15° ENE
Shenzhou-11 Module 2.9 23:40:18 10° W 23:42:56 41° SSW 23:45:32 10° SE
IRS-1C Rocket 4.1 23:37:48 10° SSE 23:43:04 88° WSW 23:48:22 10° NNW
Radarsat 4.5 23:39:43 10° SSE 23:44:54 78° ENE 23:50:07 10° N
STARLINK-52 3.4 23:41:42 10° WSW 23:45:11 65° NNW 23:47:46 17° NE
SL-16 R/B 2.4 23:41:04 10° S 23:46:34 54° ESE 23:52:07 10° NNE
Exosat Rocket 4.4 23:43:55 10° SW 23:48:59 47° WNW 23:53:52 10° NNE
Cosmos 1782 Rocket 3.9 23:45:08 10° N 23:49:16 41° ENE 23:53:22 10° SSE
Cosmos 1867 4.2 23:44:42 10° NNW 23:49:43 35° NE 23:54:40 10° ESE
SKYMED 2 4.3 23:46:25 10° NNE 23:50:13 32° E 23:54:05 10° SSE
STARLINK-60 4.2 23:48:08 10° W 23:51:17 35° NNW 23:53:28 17° NNE
CORIOLIS 4.2 23:47:53 10° SSE 23:53:21 87° ENE 23:58:49 10° NNW
STARLINK-29 3.7 23:49:54 10° WSW 23:53:21 51° NNW 23:55:38 19° NE
Aureole 1 Rocket 2.3 23:50:47 10° SSW 23:53:44 73° WNW 23:56:54 11° NNE
